Regional Weather Roundup
Issued by NWS

Home | Current Version | Previous Version | Graphics & Text | Print | Product List | Glossary On
Versions: 1 2 3 4 5 6 7 8 9 10 11 12 13 14 15 16 17 18 19 20 21 22 23 24 25 26 27 28
000
ASUS45 KBOI 230610
RWRID

IDAHO REGIONAL WEATHER ROUNDUP
NATIONAL WEATHER SERVICE BOISE ID
1200 AM MDT THU MAR 23 2017

NOTE: "FAIR" INDICATES FEW OR NO CLOUDS BELOW 12000 FEET
WITH NO SIGNIFICANT WEATHER AND/OR OBSTRUCTIONS TO VISIBILITY

IDZ012-014-230700-
SOUTHWEST IDAHO


CITY           SKY/WX    TMP DP  RH WIND       PRES   REMARKS
BOISE          CLOUDY    48  38  68 W8        29.90S
CALDWELL       CLOUDY    46  39  76 W10       29.93R
MOUNTAIN HOME  CLOUDY    47  42  80 NW13      29.89R
$$

IDZ016-017-230700-
SOUTHCENTRAL IDAHO


CITY           SKY/WX    TMP DP  RH WIND       PRES   REMARKS
BURLEY         CLOUDY    42  35  76 W6        29.83F
JEROME         CLOUDY    43  37  79 S5        29.86F
TWIN FALLS     CLOUDY    42  36  79 S13       29.85F
$$

IDZ019>023-230700-
SOUTHEAST IDAHO


CITY           SKY/WX    TMP DP  RH WIND       PRES   REMARKS
IDAHO FALLS    CLOUDY    43  37  79 CALM      29.83F
POCATELLO      CLOUDY    43  39  86 SW8       29.84F
REXBURG        CLOUDY    40  37  89 NE3       29.83S
$$

IDZ006-010-011-018-031-032-230700-
CENTRAL IDAHO MOUNTAINS


CITY           SKY/WX    TMP DP  RH WIND       PRES   REMARKS
MCCALL         CLOUDY    36  32  85 SW3       29.91S
HAILEY         MOCLDY    36  30  80 NW7       29.86F WCI  30
STANLEY          N/A     30  27  88 CALM      29.90F
SALMON         CLOUDY    43  32  65 CALM      29.84S
CHALLIS        CLOUDY    42  26  53 NW7       29.85S
$$

IDZ002-004-006-007-026-230700-
NORTHERN IDAHO


CITY           SKY/WX    TMP DP  RH WIND       PRES   REMARKS
LEWISTON       PTCLDY    46  41  82 CALM      29.98R
LOWELL           N/A     42  40  92 CALM      30.02R
COEUR D`ALENE  CLOUDY    44  38  79 W7        29.94R
MULLAN PASS    LGT SNOW  30  30 100 VRB6      29.89R VSB 3/4 WCI  24
$$




USA.gov is the U.S. government's official web portal to all federal, state and local government web resources and services.